Weather History for KOWB - April, 2013

Change the Weather History Date:

Saturday, April 6, 2013

  Actual Average Record
Temperature  
Mean Temperature 59 °F -  
Max Temperature 73 °F 64 °F 86 °F (1988)
Min Temperature 45 °F 40 °F 26 °F (1982)
Degree Days  
Heating Degree Days 6    
Growing Degree Days 9 (Base 50)    
Moisture  
Dew Point 39 °F    
Average Humidity 47    
Maximum Humidity 66    
Minimum Humidity 30    
Precipitation  
Precipitation 0.00 in - - ()
Sea Level Pressure  
Sea Level Pressure 30.02 in    
Wind  
Wind Speed 7 mph (SSE)    
Max Wind Speed 21 mph    
Max Gust Speed 26 mph    
Visibility 10 miles    
Events      
Averages and records for this station are not official NWS values.
T = Trace of Precipitation, MM = Missing Value Source: NWS Daily Summary

Daily Weather History Graph

Daily Weather History Graph

Search for Another Location

Airport or City:

Trip Planner

Search our weather history database for the weather conditions in past years. The results will help you decide how hot, cold, wet, or windy it might be!

Date:

Astronomy

Apr. 06, 2013 Rise Set
Actual Time 6:26 AM CDT 7:16 PM CDT
Civil Twilight 5:59 AM CDT 7:43 PM CDT
Nautical Twilight 5:28 AM CDT 8:14 PM CDT
Astronomical Twilight 4:55 AM CDT 8:47 PM CDT
Moon 4:05 AM CDT (4/6) 3:48 PM CDT (4/6)
Length of Visible Light 13h 43m
Length of Day
12h 50m
Waning Crescent, 15% of the Moon is Illuminated
Apr 6
Waning Crescent
Apr 10
New
Apr 18
First Quarter
Apr 25
Full
May 2
Last Quarter

Hourly Weather History & Observations

Time (CDT) Temp. Windchill Dew Point Humidity Pressure Visibility Wind Dir Wind Speed Gust Speed Precip Events Conditions
12:56 AM 46.9 °F - 34.9 °F 63% 30.11 in 10.0 mi Calm Calm - N/A   Clear
1:56 AM 47.8 °F - 34.0 °F 59% 30.10 in 10.0 mi East 4.6 mph - N/A   Clear
2:56 AM 46.9 °F - 32.9 °F 58% 30.09 in 10.0 mi ESE 4.6 mph - N/A   Clear
3:56 AM 47.8 °F - 32.9 °F 56% 30.10 in 10.0 mi SE 3.5 mph - N/A   Clear
4:56 AM 45.9 °F - 34.9 °F 66% 30.11 in 10.0 mi Calm Calm - N/A   Clear
5:56 AM 46.9 °F - 30.0 °F 52% 30.12 in 10.0 mi East 3.5 mph - N/A   Clear
6:56 AM 45.9 °F 42.9 °F 32.9 °F 61% 30.12 in 10.0 mi ESE 5.8 mph - N/A   Clear
7:56 AM 50.9 °F - 34.9 °F 54% 30.12 in 10.0 mi SE 9.2 mph - N/A   Clear
8:56 AM 55.9 °F - 37.9 °F 51% 30.12 in 10.0 mi SSE 10.4 mph - N/A   Clear
9:56 AM 59.9 °F - 36.9 °F 42% 30.11 in 10.0 mi SSE 11.5 mph - N/A   Clear
10:56 AM 65.8 °F - 41.0 °F 40% 30.09 in 10.0 mi South 11.5 mph - N/A   Clear
11:56 AM 70.0 °F - 41.9 °F 36% 30.07 in 10.0 mi SSW 18.4 mph 23.0 mph N/A   Clear
12:56 PM 72.0 °F - 41.9 °F 34% 30.04 in 10.0 mi SSW 17.3 mph 23.0 mph N/A   Clear
1:56 PM 72.9 °F - 41.0 °F 32% 30.01 in 10.0 mi South 15.0 mph 23.0 mph N/A   Clear
2:56 PM 73.9 °F - 41.0 °F 30% 29.96 in 10.0 mi South 16.1 mph 23.0 mph N/A   Clear
3:56 PM 72.9 °F - 41.9 °F 33% 29.94 in 10.0 mi South 16.1 mph 24.2 mph N/A   Clear
4:56 PM 72.9 °F - 39.9 °F 30% 29.92 in 10.0 mi South 20.7 mph 26.5 mph 0.00 in   Clear
5:56 PM 72.0 °F - 41.9 °F 34% 29.90 in 10.0 mi South 13.8 mph 20.7 mph N/A   Clear
6:56 PM 66.9 °F - 43.0 °F 42% 29.90 in 10.0 mi South 11.5 mph 18.4 mph N/A   Clear
7:56 PM 61.0 °F - 43.0 °F 52% 29.90 in 10.0 mi South 8.1 mph - N/A   Clear
8:56 PM 59.0 °F - 43.0 °F 55% 29.92 in 10.0 mi South 8.1 mph - N/A   Clear
9:56 PM 59.9 °F - 43.0 °F 54% 29.93 in 10.0 mi South 10.4 mph - N/A   Clear
10:56 PM 61.0 °F - 43.0 °F 52% 29.92 in 10.0 mi South 10.4 mph - N/A   Clear
11:56 PM 61.0 °F - 41.9 °F 49% 29.93 in 10.0 mi South 13.8 mph - N/A   Clear